Tracking 28125 objects as of 3-Oct-2023
HD Live streaming from Space Station
objects crossing your sky now

STARLINK-2520

Track STARLINK-2520 now!
10-day predictions
STARLINK-2520 is classified as:


NORAD ID: 48281
Int'l Code: 2021-036F
Perigee: 553.3 km
Apogee: 555.5 km
Inclination: 53.1 °
Period: 95.6 minutes
Semi major axis: 6925 km
RCS: Unknown
Launch date: April 29, 2021
Source: United States (US)
Launch site: AIR FORCE EASTERN TEST RANGE (AFETR)
Your satellite tracking list
Your tracking list is empty




NASA's NSSDC Master Catalog

Two Line Element Set (TLE):
1 48281U 21036F   23274.86669672  .00011221  00000-0  77120-3 0  9990
2 48281  53.0525 111.1849 0001614  96.8820 263.2353 15.06390475134849
Source of the keplerian elements: AFSPC